Voltar ao catálogo

TITAN 34D TRANSTAGE R/B

AtivoMEO
NORAD 19983·ROCKET BODY·🇺🇸 United States

Lançado May 10, 1989 de Cape Canaveral Space Force Station

Loading…

Próximas Passagens (próximas 24 horas)

TLE

AtualizadoSource: Space-Track

Época: Sep 13, 2026, 17:13 UTC

1 19983U 89035C   26256.71803092 -.00000419  00000-0  00000-0 0  9991
2 19983   8.2515   5.1997 1060096  58.0487 311.7953  0.99428399 26378

Acompanhe TITAN 34D TRANSTAGE R/B em tempo real com AllMySat

Download on the App Store